Year,Month,Day,Hour,Minute,Value (Times are PST for insolation in W/m^2)
2007,02,26,00,00,0.00
2007,02,26,00,01,0.00
2007,02,26,00,02,0.00
2007,02,26,00,03,0.00
2007,02,26,00,04,0.00
2007,02,26,00,05,0.00
2007,02,26,00,06,0.00
2007,02,26,00,07,0.00
2007,02,26,00,08,0.00
2007,02,26,00,09,0.00
2007,02,26,00,10,0.00
2007,02,26,00,11,0.00
2007,02,26,00,12,0.00
2007,02,26,00,13,0.00
2007,02,26,00,14,0.00
2007,02,26,00,15,0.00
2007,02,26,00,16,0.00
2007,02,26,00,17,0.00
2007,02,26,00,18,0.00
2007,02,26,00,19,0.00
2007,02,26,00,20,0.00
2007,02,26,00,21,0.00
2007,02,26,00,22,0.00
2007,02,26,00,23,0.00
2007,02,26,00,24,0.00
2007,02,26,00,25,0.00
2007,02,26,00,26,0.00
2007,02,26,00,27,0.00
2007,02,26,00,28,0.00
2007,02,26,00,29,0.00
2007,02,26,00,30,0.00
2007,02,26,00,31,0.00
2007,02,26,00,32,0.00
2007,02,26,00,33,0.00
2007,02,26,00,34,0.00
2007,02,26,00,35,0.00
2007,02,26,00,36,0.00
2007,02,26,00,37,0.00
2007,02,26,00,38,0.00
2007,02,26,00,39,0.00
2007,02,26,00,40,0.00
2007,02,26,00,41,0.00
2007,02,26,00,42,0.00
2007,02,26,00,43,0.00
2007,02,26,00,44,0.00
2007,02,26,00,45,0.00
2007,02,26,00,46,0.00
2007,02,26,00,47,0.00
2007,02,26,00,48,0.00
2007,02,26,00,49,0.00
2007,02,26,00,50,0.00
2007,02,26,00,51,0.00
2007,02,26,00,52,0.00
2007,02,26,00,53,0.00
2007,02,26,00,54,0.00
2007,02,26,00,55,0.00
2007,02,26,00,56,0.00
2007,02,26,00,57,0.00
2007,02,26,00,58,0.00
2007,02,26,00,59,0.00
2007,02,26,01,00,0.00
2007,02,26,01,01,0.00
2007,02,26,01,02,0.00
2007,02,26,01,03,0.00
2007,02,26,01,04,0.00
2007,02,26,01,05,0.00
2007,02,26,01,06,0.00
2007,02,26,01,07,0.00
2007,02,26,01,08,0.00
2007,02,26,01,09,0.00
2007,02,26,01,10,0.00
2007,02,26,01,11,0.00
2007,02,26,01,12,0.00
2007,02,26,01,13,0.00
2007,02,26,01,14,0.00
2007,02,26,01,15,0.00
2007,02,26,01,16,0.00
2007,02,26,01,17,0.00
2007,02,26,01,18,0.00
2007,02,26,01,19,0.00
2007,02,26,01,20,0.00
2007,02,26,01,21,0.00
2007,02,26,01,22,0.00
2007,02,26,01,23,0.00
2007,02,26,01,24,0.00
2007,02,26,01,25,0.00
2007,02,26,01,26,0.00
2007,02,26,01,27,0.00
2007,02,26,01,28,0.00
2007,02,26,01,29,0.00
2007,02,26,01,30,0.00
2007,02,26,01,31,0.00
2007,02,26,01,32,0.00
2007,02,26,01,33,0.00
2007,02,26,01,34,0.00
2007,02,26,01,35,0.00
2007,02,26,01,36,0.00
2007,02,26,01,37,0.00
2007,02,26,01,38,0.00
2007,02,26,01,39,0.00
2007,02,26,01,40,0.00
2007,02,26,01,41,0.00
2007,02,26,01,42,0.00
2007,02,26,01,43,0.00
2007,02,26,01,44,0.00
2007,02,26,01,45,0.00
2007,02,26,01,46,0.00
2007,02,26,01,47,0.00
2007,02,26,01,48,0.00
2007,02,26,01,49,0.00
2007,02,26,01,50,0.00
2007,02,26,01,51,0.00
2007,02,26,01,52,0.00
2007,02,26,01,53,0.00
2007,02,26,01,54,0.00
2007,02,26,01,55,0.00
2007,02,26,01,56,0.00
2007,02,26,01,57,0.00
2007,02,26,01,58,0.00
2007,02,26,01,59,0.00
2007,02,26,02,00,0.00
2007,02,26,02,01,0.00
2007,02,26,02,02,0.00
2007,02,26,02,03,0.00
2007,02,26,02,04,0.00
2007,02,26,02,05,0.00
2007,02,26,02,06,0.00
2007,02,26,02,07,0.00
2007,02,26,02,08,0.00
2007,02,26,02,09,0.00
2007,02,26,02,10,0.00
2007,02,26,02,11,0.00
2007,02,26,02,12,0.00
2007,02,26,02,13,0.00
2007,02,26,02,14,0.00
2007,02,26,02,15,0.00
2007,02,26,02,16,0.00
2007,02,26,02,17,0.00
2007,02,26,02,18,0.00
2007,02,26,02,19,0.00
2007,02,26,02,20,0.00
2007,02,26,02,21,0.00
2007,02,26,02,22,0.00
2007,02,26,02,23,0.00
2007,02,26,02,24,0.00
2007,02,26,02,25,0.00
2007,02,26,02,26,0.00
2007,02,26,02,27,0.00
2007,02,26,02,28,0.00
2007,02,26,02,29,0.00
2007,02,26,02,30,0.00
2007,02,26,02,31,0.00
2007,02,26,02,32,0.00
2007,02,26,02,33,0.00
2007,02,26,02,34,0.00
2007,02,26,02,35,0.00
2007,02,26,02,36,0.00
2007,02,26,02,37,0.00
2007,02,26,02,38,0.00
2007,02,26,02,39,0.00
2007,02,26,02,40,0.00
2007,02,26,02,41,0.00
2007,02,26,02,42,0.00
2007,02,26,02,43,0.00
2007,02,26,02,44,0.00
2007,02,26,02,45,0.00
2007,02,26,02,46,0.00
2007,02,26,02,47,0.00
2007,02,26,02,48,0.00
2007,02,26,02,49,0.00
2007,02,26,02,50,0.00
2007,02,26,02,51,0.00
2007,02,26,02,52,0.00
2007,02,26,02,53,0.00
2007,02,26,02,54,0.00
2007,02,26,02,55,0.00
2007,02,26,02,56,0.00
2007,02,26,02,57,0.00
2007,02,26,02,58,0.00
2007,02,26,02,59,0.00
2007,02,26,03,00,0.00
2007,02,26,03,01,0.00
2007,02,26,03,02,0.00
2007,02,26,03,03,0.00
2007,02,26,03,04,0.00
2007,02,26,03,05,0.00
2007,02,26,03,06,0.00
2007,02,26,03,07,0.00
2007,02,26,03,08,0.00
2007,02,26,03,09,0.00
2007,02,26,03,10,0.00
2007,02,26,03,11,0.00
2007,02,26,03,12,0.00
2007,02,26,03,13,0.00
2007,02,26,03,14,0.00
2007,02,26,03,15,0.00
2007,02,26,03,16,0.00
2007,02,26,03,17,0.00
2007,02,26,03,18,0.00
2007,02,26,03,19,0.00
2007,02,26,03,20,0.00
2007,02,26,03,21,0.00
2007,02,26,03,22,0.00
2007,02,26,03,23,0.00
2007,02,26,03,24,0.00
2007,02,26,03,25,0.00
2007,02,26,03,26,0.00
2007,02,26,03,27,0.00
2007,02,26,03,28,0.00
2007,02,26,03,29,0.00
2007,02,26,03,30,0.00
2007,02,26,03,31,0.00
2007,02,26,03,32,0.00
2007,02,26,03,33,0.00
2007,02,26,03,34,0.00
2007,02,26,03,35,0.00
2007,02,26,03,36,0.00
2007,02,26,03,37,0.00
2007,02,26,03,38,0.00
2007,02,26,03,39,0.00
2007,02,26,03,40,0.00
2007,02,26,03,41,0.00
2007,02,26,03,42,0.00
2007,02,26,03,43,0.00
2007,02,26,03,44,0.00
2007,02,26,03,45,0.00
2007,02,26,03,46,0.00
2007,02,26,03,47,0.00
2007,02,26,03,48,0.00
2007,02,26,03,49,0.00
2007,02,26,03,50,0.00
2007,02,26,03,51,0.00
2007,02,26,03,52,0.00
2007,02,26,03,53,0.00
2007,02,26,03,54,0.00
2007,02,26,03,55,0.00
2007,02,26,03,56,0.00
2007,02,26,03,57,0.00
2007,02,26,03,58,0.00
2007,02,26,03,59,0.00
2007,02,26,04,00,0.00
2007,02,26,04,01,0.00
2007,02,26,04,02,0.00
2007,02,26,04,03,0.00
2007,02,26,04,04,0.00
2007,02,26,04,05,0.00
2007,02,26,04,06,0.00
2007,02,26,04,07,0.00
2007,02,26,04,08,0.00
2007,02,26,04,09,0.00
2007,02,26,04,10,0.00
2007,02,26,04,11,0.00
2007,02,26,04,12,0.00
2007,02,26,04,13,0.00
2007,02,26,04,14,0.00
2007,02,26,04,15,0.00
2007,02,26,04,16,0.00
2007,02,26,04,17,0.00
2007,02,26,04,18,0.00
2007,02,26,04,19,0.00
2007,02,26,04,20,0.00
2007,02,26,04,21,0.00
2007,02,26,04,22,0.00
2007,02,26,04,23,0.00
2007,02,26,04,24,0.00
2007,02,26,04,25,0.00
2007,02,26,04,26,0.00
2007,02,26,04,27,0.00
2007,02,26,04,28,0.00
2007,02,26,04,29,0.00
2007,02,26,04,30,0.00
2007,02,26,04,31,0.00
2007,02,26,04,32,0.00
2007,02,26,04,33,0.00
2007,02,26,04,34,0.00
2007,02,26,04,35,0.00
2007,02,26,04,36,0.00
2007,02,26,04,37,0.00
2007,02,26,04,38,0.00
2007,02,26,04,39,0.00
2007,02,26,04,40,0.00
2007,02,26,04,41,0.00
2007,02,26,04,42,0.00
2007,02,26,04,43,0.00
2007,02,26,04,44,0.00
2007,02,26,04,45,0.00
2007,02,26,04,46,0.00
2007,02,26,04,47,0.00
2007,02,26,04,48,0.00
2007,02,26,04,49,0.00
2007,02,26,04,50,0.00
2007,02,26,04,51,0.00
2007,02,26,04,52,0.00
2007,02,26,04,53,0.00
2007,02,26,04,54,0.00
2007,02,26,04,55,0.00
2007,02,26,04,56,0.00
2007,02,26,04,57,0.00
2007,02,26,04,58,0.00
2007,02,26,04,59,0.00
2007,02,26,05,00,0.00
2007,02,26,05,01,0.00
2007,02,26,05,02,0.00
2007,02,26,05,03,0.00
2007,02,26,05,04,0.00
2007,02,26,05,05,0.00
2007,02,26,05,06,0.00
2007,02,26,05,07,0.00
2007,02,26,05,08,0.00
2007,02,26,05,09,0.00
2007,02,26,05,10,0.00
2007,02,26,05,11,0.00
2007,02,26,05,12,0.00
2007,02,26,05,13,0.00
2007,02,26,05,14,0.00
2007,02,26,05,15,0.00
2007,02,26,05,16,0.00
2007,02,26,05,17,0.00
2007,02,26,05,18,0.00
2007,02,26,05,19,0.00
2007,02,26,05,20,0.00
2007,02,26,05,21,0.00
2007,02,26,05,22,0.00
2007,02,26,05,23,0.00
2007,02,26,05,24,0.00
2007,02,26,05,25,0.00
2007,02,26,05,26,0.00
2007,02,26,05,27,0.00
2007,02,26,05,28,0.00
2007,02,26,05,29,0.00
2007,02,26,05,30,0.00
2007,02,26,05,31,0.00
2007,02,26,05,32,0.00
2007,02,26,05,33,0.00
2007,02,26,05,34,0.00
2007,02,26,05,35,0.00
2007,02,26,05,36,0.00
2007,02,26,05,37,0.00
2007,02,26,05,38,0.00
2007,02,26,05,39,0.00
2007,02,26,05,40,0.00
2007,02,26,05,41,0.00
2007,02,26,05,42,0.00
2007,02,26,05,43,0.00
2007,02,26,05,44,0.00
2007,02,26,05,45,0.00
2007,02,26,05,46,0.00
2007,02,26,05,47,0.00
2007,02,26,05,48,0.00
2007,02,26,05,49,0.00
2007,02,26,05,50,0.00
2007,02,26,05,51,0.00
2007,02,26,05,52,0.00
2007,02,26,05,53,0.00
2007,02,26,05,54,0.00
2007,02,26,05,55,0.00
2007,02,26,05,56,0.00
2007,02,26,05,57,0.00
2007,02,26,05,58,0.00
2007,02,26,05,59,0.00
2007,02,26,06,00,0.00
2007,02,26,06,01,0.00
2007,02,26,06,02,0.00
2007,02,26,06,03,0.00
2007,02,26,06,04,0.00
2007,02,26,06,05,0.00
2007,02,26,06,06,0.00
2007,02,26,06,07,0.00
2007,02,26,06,08,0.00
2007,02,26,06,09,0.00
2007,02,26,06,10,0.00
2007,02,26,06,11,0.00
2007,02,26,06,12,0.00
2007,02,26,06,13,0.00
2007,02,26,06,14,0.00
2007,02,26,06,15,0.00
2007,02,26,06,16,0.00
2007,02,26,06,17,0.00
2007,02,26,06,18,0.00
2007,02,26,06,19,0.00
2007,02,26,06,20,0.00
2007,02,26,06,21,0.00
2007,02,26,06,22,0.00
2007,02,26,06,23,0.00
2007,02,26,06,24,0.00
2007,02,26,06,25,0.00
2007,02,26,06,26,0.00
2007,02,26,06,27,0.00
2007,02,26,06,28,0.00
2007,02,26,06,29,0.00
2007,02,26,06,30,0.00
2007,02,26,06,31,0.00
2007,02,26,06,32,0.00
2007,02,26,06,33,0.00
2007,02,26,06,34,0.00
2007,02,26,06,35,0.00
2007,02,26,06,36,0.00
2007,02,26,06,37,0.00
2007,02,26,06,38,0.00
2007,02,26,06,39,0.00
2007,02,26,06,40,0.00
2007,02,26,06,41,0.00
2007,02,26,06,42,0.00
2007,02,26,06,43,0.00
2007,02,26,06,44,0.00
2007,02,26,06,45,0.00
2007,02,26,06,46,0.00
2007,02,26,06,47,0.00
2007,02,26,06,48,0.00
2007,02,26,06,49,0.00
2007,02,26,06,50,0.00
2007,02,26,06,51,0.00
2007,02,26,06,52,0.00
2007,02,26,06,53,0.00
2007,02,26,06,54,0.00
2007,02,26,06,55,0.00
2007,02,26,06,56,0.00
2007,02,26,06,57,0.00
2007,02,26,06,58,0.00
2007,02,26,06,59,0.00
2007,02,26,07,00,0.00
2007,02,26,07,01,0.00
2007,02,26,07,02,0.00
2007,02,26,07,03,0.00
2007,02,26,07,04,0.00
2007,02,26,07,05,0.00
2007,02,26,07,06,0.00
2007,02,26,07,07,0.00
2007,02,26,07,08,0.00
2007,02,26,07,09,0.00
2007,02,26,07,10,0.00
2007,02,26,07,11,0.00
2007,02,26,07,12,0.00
2007,02,26,07,13,0.00
2007,02,26,07,14,0.00
2007,02,26,07,15,0.00
2007,02,26,07,16,0.00
2007,02,26,07,17,0.00
2007,02,26,07,18,3.80
2007,02,26,07,19,5.00
2007,02,26,07,20,5.00
2007,02,26,07,21,5.40
2007,02,26,07,22,7.00
2007,02,26,07,23,7.80
2007,02,26,07,24,9.00
2007,02,26,07,25,9.00
2007,02,26,07,26,10.30
2007,02,26,07,27,11.00
2007,02,26,07,28,11.00
2007,02,26,07,29,11.00
2007,02,26,07,30,11.20
2007,02,26,07,31,12.00
2007,02,26,07,32,12.00
2007,02,26,07,33,12.00
2007,02,26,07,34,13.20
2007,02,26,07,35,14.00
2007,02,26,07,36,14.00
2007,02,26,07,37,15.90
2007,02,26,07,38,16.30
2007,02,26,07,39,18.00
2007,02,26,07,40,18.00
2007,02,26,07,41,18.50
2007,02,26,07,42,19.00
2007,02,26,07,43,19.00
2007,02,26,07,44,19.00
2007,02,26,07,45,19.00
2007,02,26,07,46,19.00
2007,02,26,07,47,19.40
2007,02,26,07,48,21.00
2007,02,26,07,49,21.00
2007,02,26,07,50,21.00
2007,02,26,07,51,21.00
2007,02,26,07,52,21.00
2007,02,26,07,53,22.60
2007,02,26,07,54,23.00
2007,02,26,07,55,23.00
2007,02,26,07,56,23.00
2007,02,26,07,57,23.70
2007,02,26,07,58,25.00
2007,02,26,07,59,25.00
2007,02,26,08,00,25.00
2007,02,26,08,01,25.00
2007,02,26,08,02,25.00
2007,02,26,08,03,25.00
2007,02,26,08,04,25.00
2007,02,26,08,05,25.30
2007,02,26,08,06,26.00
2007,02,26,08,07,27.00
2007,02,26,08,08,28.00
2007,02,26,08,09,29.40
2007,02,26,08,10,31.60
2007,02,26,08,11,32.90
2007,02,26,08,12,35.00
2007,02,26,08,13,35.40
2007,02,26,08,14,37.60
2007,02,26,08,15,39.00
2007,02,26,08,16,39.00
2007,02,26,08,17,39.00
2007,02,26,08,18,39.00
2007,02,26,08,19,39.00
2007,02,26,08,20,40.00
2007,02,26,08,21,40.00
2007,02,26,08,22,40.50
2007,02,26,08,23,42.00
2007,02,26,08,24,42.00
2007,02,26,08,25,44.20
2007,02,26,08,26,46.70
2007,02,26,08,27,47.00
2007,02,26,08,28,48.80
2007,02,26,08,29,51.20
2007,02,26,08,30,54.40
2007,02,26,08,31,57.10
2007,02,26,08,32,60.80
2007,02,26,08,33,63.50
2007,02,26,08,34,66.20
2007,02,26,08,35,68.40
2007,02,26,08,36,69.80
2007,02,26,08,37,71.80
2007,02,26,08,38,72.00
2007,02,26,08,39,72.40
2007,02,26,08,40,74.00
2007,02,26,08,41,74.00
2007,02,26,08,42,75.10
2007,02,26,08,43,76.00
2007,02,26,08,44,76.00
2007,02,26,08,45,76.00
2007,02,26,08,46,76.10
2007,02,26,08,47,77.00
2007,02,26,08,48,77.60
2007,02,26,08,49,79.00
2007,02,26,08,50,80.00
2007,02,26,08,51,82.20
2007,02,26,08,52,83.00
2007,02,26,08,53,83.00
2007,02,26,08,54,83.00
2007,02,26,08,55,83.00
2007,02,26,08,56,82.60
2007,02,26,08,57,81.00
2007,02,26,08,58,81.00
2007,02,26,08,59,82.00
2007,02,26,09,00,83.60
2007,02,26,09,01,85.40
2007,02,26,09,02,87.60
2007,02,26,09,03,88.00
2007,02,26,09,04,88.00
2007,02,26,09,05,88.00
2007,02,26,09,06,88.00
2007,02,26,09,07,88.00
2007,02,26,09,08,88.00
2007,02,26,09,09,88.00
2007,02,26,09,10,88.00
2007,02,26,09,11,88.00
2007,02,26,09,12,89.90
2007,02,26,09,13,90.20
2007,02,26,09,14,91.00
2007,02,26,09,15,91.80
2007,02,26,09,16,94.00
2007,02,26,09,17,96.20
2007,02,26,09,18,97.80
2007,02,26,09,19,99.70
2007,02,26,09,20,100.00
2007,02,26,09,21,105.20
2007,02,26,09,22,107.40
2007,02,26,09,23,109.00
2007,02,26,09,24,109.00
2007,02,26,09,25,109.00
2007,02,26,09,26,109.00
2007,02,26,09,27,109.00
2007,02,26,09,28,109.00
2007,02,26,09,29,110.90
2007,02,26,09,30,111.30
2007,02,26,09,31,113.00
2007,02,26,09,32,114.10
2007,02,26,09,33,117.00
2007,02,26,09,34,118.00
2007,02,26,09,35,119.40
2007,02,26,09,36,120.00
2007,02,26,09,37,120.00
2007,02,26,09,38,120.00
2007,02,26,09,39,120.20
2007,02,26,09,40,121.00
2007,02,26,09,41,121.00
2007,02,26,09,42,121.00
2007,02,26,09,43,122.10
2007,02,26,09,44,124.40
2007,02,26,09,45,126.60
2007,02,26,09,46,127.90
2007,02,26,09,47,130.60
2007,02,26,09,48,134.00
2007,02,26,09,49,134.40
2007,02,26,09,50,135.00
2007,02,26,09,51,135.00
2007,02,26,09,52,134.40
2007,02,26,09,53,134.00
2007,02,26,09,54,134.90
2007,02,26,09,55,135.10
2007,02,26,09,56,137.40
2007,02,26,09,57,139.90
2007,02,26,09,58,142.80
2007,02,26,09,59,145.90
2007,02,26,10,00,149.80
2007,02,26,10,01,151.00
2007,02,26,10,02,185.50
2007,02,26,10,03,194.70
2007,02,26,10,04,192.60
2007,02,26,10,05,169.00
2007,02,26,10,06,163.70
2007,02,26,10,07,165.00
2007,02,26,10,08,166.10
2007,02,26,10,09,169.60
2007,02,26,10,10,173.20
2007,02,26,10,11,177.40
2007,02,26,10,12,183.40
2007,02,26,10,13,190.00
2007,02,26,10,14,190.50
2007,02,26,10,15,192.00
2007,02,26,10,16,190.20
2007,02,26,10,17,188.00
2007,02,26,10,18,190.70
2007,02,26,10,19,197.60
2007,02,26,10,20,206.20
2007,02,26,10,21,223.20
2007,02,26,10,22,247.80
2007,02,26,10,23,279.60
2007,02,26,10,24,309.00
2007,02,26,10,25,345.00
2007,02,26,10,26,403.20
2007,02,26,10,27,355.70
2007,02,26,10,28,329.00
2007,02,26,10,29,328.60
2007,02,26,10,30,314.10
2007,02,26,10,31,277.00
2007,02,26,10,32,272.70
2007,02,26,10,33,305.00
2007,02,26,10,34,327.00
2007,02,26,10,35,327.00
2007,02,26,10,36,367.50
2007,02,26,10,37,339.40
2007,02,26,10,38,394.30
2007,02,26,10,39,349.50
2007,02,26,10,40,369.00
2007,02,26,10,41,403.00
2007,02,26,10,42,454.00
2007,02,26,10,43,506.20
2007,02,26,10,44,541.00
2007,02,26,10,45,541.00
2007,02,26,10,46,579.70
2007,02,26,10,47,574.80
2007,02,26,10,48,577.50
2007,02,26,10,49,537.90
2007,02,26,10,50,495.90
2007,02,26,10,51,453.20
2007,02,26,10,52,392.80
2007,02,26,10,53,388.00
2007,02,26,10,54,392.00
2007,02,26,10,55,395.50
2007,02,26,10,56,421.30
2007,02,26,10,57,396.20
2007,02,26,10,58,374.70
2007,02,26,10,59,313.50
2007,02,26,11,00,239.90
2007,02,26,11,01,209.60
2007,02,26,11,02,200.40
2007,02,26,11,03,193.60
2007,02,26,11,04,185.50
2007,02,26,11,05,180.40
2007,02,26,11,06,177.40
2007,02,26,11,07,186.80
2007,02,26,11,08,229.00
2007,02,26,11,09,224.40
2007,02,26,11,10,202.00
2007,02,26,11,11,179.60
2007,02,26,11,12,175.90
2007,02,26,11,13,181.90
2007,02,26,11,14,193.40
2007,02,26,11,15,229.30
2007,02,26,11,16,301.60
2007,02,26,11,17,374.80
2007,02,26,11,18,436.70
2007,02,26,11,19,487.20
2007,02,26,11,20,550.00
2007,02,26,11,21,581.70
2007,02,26,11,22,639.60
2007,02,26,11,23,677.60
2007,02,26,11,24,722.80
2007,02,26,11,25,736.00
2007,02,26,11,26,745.20
2007,02,26,11,27,727.30
2007,02,26,11,28,719.00
2007,02,26,11,29,638.00
2007,02,26,11,30,619.00
2007,02,26,11,31,619.00
2007,02,26,11,32,597.40
2007,02,26,11,33,547.00
2007,02,26,11,34,547.00
2007,02,26,11,35,547.00
2007,02,26,11,36,484.80
2007,02,26,11,37,444.50
2007,02,26,11,38,458.50
2007,02,26,11,39,432.00
2007,02,26,11,40,456.30
2007,02,26,11,41,524.60
2007,02,26,11,42,553.50
2007,02,26,11,43,605.00
2007,02,26,11,44,591.30
2007,02,26,11,45,542.50
2007,02,26,11,46,529.40
2007,02,26,11,47,612.60
2007,02,26,11,48,552.00
2007,02,26,11,49,542.70
2007,02,26,11,50,524.00
2007,02,26,11,51,599.50
2007,02,26,11,52,678.00
2007,02,26,11,53,735.30
2007,02,26,11,54,741.20
2007,02,26,11,55,770.50
2007,02,26,11,56,846.60
2007,02,26,11,57,816.80
2007,02,26,11,58,763.10
2007,02,26,11,59,794.50
2007,02,26,12,00,829.20
2007,02,26,12,01,803.30
2007,02,26,12,02,787.00
2007,02,26,12,03,784.00
2007,02,26,12,04,784.00
2007,02,26,12,05,717.50
2007,02,26,12,06,353.80
2007,02,26,12,07,379.80
2007,02,26,12,08,378.00
2007,02,26,12,09,372.60
2007,02,26,12,10,357.00
2007,02,26,12,11,429.80
2007,02,26,12,12,448.00
2007,02,26,12,13,458.40
2007,02,26,12,14,506.50
2007,02,26,12,15,484.90
2007,02,26,12,16,535.90
2007,02,26,12,17,622.40
2007,02,26,12,18,620.70
2007,02,26,12,19,592.00
2007,02,26,12,20,561.20
2007,02,26,12,21,616.00
2007,02,26,12,22,620.10
2007,02,26,12,23,599.00
2007,02,26,12,24,645.20
2007,02,26,12,25,737.30
2007,02,26,12,26,720.80
2007,02,26,12,27,663.20
2007,02,26,12,28,617.40
2007,02,26,12,29,532.60
2007,02,26,12,30,459.00
2007,02,26,12,31,429.00
2007,02,26,12,32,366.00
2007,02,26,12,33,342.60
2007,02,26,12,34,339.00
2007,02,26,12,35,339.00
2007,02,26,12,36,339.00
2007,02,26,12,37,555.80
2007,02,26,12,38,518.40
2007,02,26,12,39,521.10
2007,02,26,12,40,621.00
2007,02,26,12,41,609.10
2007,02,26,12,42,561.80
2007,02,26,12,43,516.20
2007,02,26,12,44,527.40
2007,02,26,12,45,613.50
2007,02,26,12,46,703.10
2007,02,26,12,47,759.90
2007,02,26,12,48,777.50
2007,02,26,12,49,765.10
2007,02,26,12,50,722.40
2007,02,26,12,51,705.40
2007,02,26,12,52,660.00
2007,02,26,12,53,629.00
2007,02,26,12,54,632.20
2007,02,26,12,55,553.80
2007,02,26,12,56,568.20
2007,02,26,12,57,696.00
2007,02,26,12,58,685.80
2007,02,26,12,59,697.10
2007,02,26,13,00,695.50
2007,02,26,13,01,682.80
2007,02,26,13,02,648.40
2007,02,26,13,03,604.40
2007,02,26,13,04,599.00
2007,02,26,13,05,599.90
2007,02,26,13,06,617.60
2007,02,26,13,07,651.90
2007,02,26,13,08,659.50
2007,02,26,13,09,646.80
2007,02,26,13,10,621.70
2007,02,26,13,11,600.50
2007,02,26,13,12,621.80
2007,02,26,13,13,639.50
2007,02,26,13,14,643.40
2007,02,26,13,15,643.60
2007,02,26,13,16,635.20
2007,02,26,13,17,623.50
2007,02,26,13,18,619.00
2007,02,26,13,19,602.90
2007,02,26,13,20,596.00
2007,02,26,13,21,619.50
2007,02,26,13,22,583.00
2007,02,26,13,23,218.20
2007,02,26,13,24,180.90
2007,02,26,13,25,214.00
2007,02,26,13,26,448.20
2007,02,26,13,27,657.70
2007,02,26,13,28,648.40
2007,02,26,13,29,645.00
2007,02,26,13,30,643.30
2007,02,26,13,31,609.30
2007,02,26,13,32,598.30
2007,02,26,13,33,599.00
2007,02,26,13,34,571.40
2007,02,26,13,35,546.40
2007,02,26,13,36,550.00
2007,02,26,13,37,565.80
2007,02,26,13,38,549.40
2007,02,26,13,39,547.00
2007,02,26,13,40,476.60
2007,02,26,13,41,195.00
2007,02,26,13,42,195.00
2007,02,26,13,43,404.00
2007,02,26,13,44,613.00
2007,02,26,13,45,591.20
2007,02,26,13,46,584.00
2007,02,26,13,47,573.80
2007,02,26,13,48,578.20
2007,02,26,13,49,581.00
2007,02,26,13,50,585.90
2007,02,26,13,51,590.30
2007,02,26,13,52,593.10
2007,02,26,13,53,595.30
2007,02,26,13,54,601.20
2007,02,26,13,55,609.00
2007,02,26,13,56,614.50
2007,02,26,13,57,628.00
2007,02,26,13,58,628.00
2007,02,26,13,59,623.50
2007,02,26,14,00,629.70
2007,02,26,14,01,603.20
2007,02,26,14,02,580.00
2007,02,26,14,03,333.50
2007,02,26,14,04,305.00
2007,02,26,14,05,591.00
2007,02,26,14,06,591.00
2007,02,26,14,07,591.00
2007,02,26,14,08,577.50
2007,02,26,14,09,580.30
2007,02,26,14,10,608.70
2007,02,26,14,11,604.80
2007,02,26,14,12,598.80
2007,02,26,14,13,509.00
2007,02,26,14,14,533.00
2007,02,26,14,15,429.60
2007,02,26,14,16,187.00
2007,02,26,14,17,211.00
2007,02,26,14,18,437.90
2007,02,26,14,19,608.00
2007,02,26,14,20,505.60
2007,02,26,14,21,553.70
2007,02,26,14,22,558.10
2007,02,26,14,23,548.60
2007,02,26,14,24,539.00
2007,02,26,14,25,531.90
2007,02,26,14,26,533.00
2007,02,26,14,27,545.30
2007,02,26,14,28,558.80
2007,02,26,14,29,561.00
2007,02,26,14,30,567.30
2007,02,26,14,31,508.90
2007,02,26,14,32,174.00
2007,02,26,14,33,311.90
2007,02,26,14,34,559.00
2007,02,26,14,35,546.30
2007,02,26,14,36,548.30
2007,02,26,14,37,550.00
2007,02,26,14,38,516.00
2007,02,26,14,39,458.30
2007,02,26,14,40,460.10
2007,02,26,14,41,459.20
2007,02,26,14,42,479.00
2007,02,26,14,43,495.40
2007,02,26,14,44,497.00
2007,02,26,14,45,486.50
2007,02,26,14,46,501.20
2007,02,26,14,47,465.50
2007,02,26,14,48,471.90
2007,02,26,14,49,464.20
2007,02,26,14,50,396.50
2007,02,26,14,51,418.40
2007,02,26,14,52,475.50
2007,02,26,14,53,489.00
2007,02,26,14,54,504.80
2007,02,26,14,55,506.80
2007,02,26,14,56,493.10
2007,02,26,14,57,492.60
2007,02,26,14,58,471.80
2007,02,26,14,59,480.50
2007,02,26,15,00,478.70
2007,02,26,15,01,469.40
2007,02,26,15,02,447.30
2007,02,26,15,03,461.60
2007,02,26,15,04,468.90
2007,02,26,15,05,466.00
2007,02,26,15,06,457.20
2007,02,26,15,07,429.20
2007,02,26,15,08,446.90
2007,02,26,15,09,450.00
2007,02,26,15,10,452.00
2007,02,26,15,11,423.30
2007,02,26,15,12,413.00
2007,02,26,15,13,405.50
2007,02,26,15,14,318.00
2007,02,26,15,15,318.00
2007,02,26,15,16,318.00
2007,02,26,15,17,221.70
2007,02,26,15,18,102.90
2007,02,26,15,19,111.10
2007,02,26,15,20,126.50
2007,02,26,15,21,130.00
2007,02,26,15,22,141.10
2007,02,26,15,23,242.80
2007,02,26,15,24,254.50
2007,02,26,15,25,237.80
2007,02,26,15,26,210.00
2007,02,26,15,27,223.00
2007,02,26,15,28,357.40
2007,02,26,15,29,387.00
2007,02,26,15,30,380.00
2007,02,26,15,31,340.10
2007,02,26,15,32,113.80
2007,02,26,15,33,128.00
2007,02,26,15,34,163.00
2007,02,26,15,35,165.30
2007,02,26,15,36,168.30
2007,02,26,15,37,221.50
2007,02,26,15,38,239.00
2007,02,26,15,39,312.30
2007,02,26,15,40,305.20
2007,02,26,15,41,271.70
2007,02,26,15,42,344.30
2007,02,26,15,43,361.00
2007,02,26,15,44,349.60
2007,02,26,15,45,334.00
2007,02,26,15,46,289.80
2007,02,26,15,47,211.00
2007,02,26,15,48,198.10
2007,02,26,15,49,181.00
2007,02,26,15,50,204.10
2007,02,26,15,51,258.00
2007,02,26,15,52,258.00
2007,02,26,15,53,168.20
2007,02,26,15,54,148.00
2007,02,26,15,55,163.00
2007,02,26,15,56,163.00
2007,02,26,15,57,163.00
2007,02,26,15,58,147.20
2007,02,26,15,59,98.90
2007,02,26,16,00,100.00
2007,02,26,16,01,104.00
2007,02,26,16,02,97.70
2007,02,26,16,03,93.50
2007,02,26,16,04,94.70
2007,02,26,16,05,108.40
2007,02,26,16,06,179.60
2007,02,26,16,07,108.00
2007,02,26,16,08,105.00
2007,02,26,16,09,105.00
2007,02,26,16,10,94.30
2007,02,26,16,11,88.00
2007,02,26,16,12,86.40
2007,02,26,16,13,86.10
2007,02,26,16,14,88.30
2007,02,26,16,15,89.00
2007,02,26,16,16,85.40
2007,02,26,16,17,82.70
2007,02,26,16,18,79.90
2007,02,26,16,19,79.00
2007,02,26,16,20,85.40
2007,02,26,16,21,78.70
2007,02,26,16,22,74.10
2007,02,26,16,23,71.70
2007,02,26,16,24,70.50
2007,02,26,16,25,73.40
2007,02,26,16,26,73.00
2007,02,26,16,27,67.20
2007,02,26,16,28,65.00
2007,02,26,16,29,63.50
2007,02,26,16,30,66.60
2007,02,26,16,31,68.60
2007,02,26,16,32,65.00
2007,02,26,16,33,65.00
2007,02,26,16,34,62.90
2007,02,26,16,35,76.50
2007,02,26,16,36,97.20
2007,02,26,16,37,100.00
2007,02,26,16,38,110.90
2007,02,26,16,39,110.30
2007,02,26,16,40,95.40
2007,02,26,16,41,99.20
2007,02,26,16,42,77.50
2007,02,26,16,43,95.00
2007,02,26,16,44,76.80
2007,02,26,16,45,74.30
2007,02,26,16,46,87.80
2007,02,26,16,47,90.00
2007,02,26,16,48,75.80
2007,02,26,16,49,64.80
2007,02,26,16,50,55.10
2007,02,26,16,51,52.20
2007,02,26,16,52,51.00
2007,02,26,16,53,52.20
2007,02,26,16,54,53.70
2007,02,26,16,55,57.20
2007,02,26,16,56,59.80
2007,02,26,16,57,60.00
2007,02,26,16,58,59.60
2007,02,26,16,59,57.30
2007,02,26,17,00,54.70
2007,02,26,17,01,53.00
2007,02,26,17,02,51.70
2007,02,26,17,03,49.50
2007,02,26,17,04,50.70
2007,02,26,17,05,54.00
2007,02,26,17,06,56.30
2007,02,26,17,07,58.00
2007,02,26,17,08,58.00
2007,02,26,17,09,58.00
2007,02,26,17,10,55.70
2007,02,26,17,11,54.00
2007,02,26,17,12,55.50
2007,02,26,17,13,56.00
2007,02,26,17,14,58.00
2007,02,26,17,15,58.00
2007,02,26,17,16,57.40
2007,02,26,17,17,55.20
2007,02,26,17,18,54.00
2007,02,26,17,19,54.00
2007,02,26,17,20,53.20